Location: Borzys?awiec
(53.5186°N, 14.7182°E)
Time: 14:56:44
(UTC+00:00)

Daily predictions for brighter satellites

Satellite Brightness Start Highest point End
(mag) Time Altitude Azimuth Time Altitude Azimuth Time Altitude Azimuth
Cosmos 1707 4.3 20:22:21 10° SW 20:25:41 35° WNW 20:29:02 10° N
Cosmos 2333 4.3 20:21:24 10° NNW 20:27:13 86° ENE 20:33:01 10° SSE
Terra 2.3 20:23:37 10° S 20:28:15 58° W 20:32:56 10° NNW
SJ 16-02 2.3 20:24:50 10° SSE 20:28:34 29° ESE 20:32:20 10° NE
Spot 2 Rocket 3.9 20:25:14 10° S 20:30:16 65° WSW 20:35:21 10° NNW
Cosmos 1707 Rocket 3.7 20:27:02 10° S 20:31:24 59° E 20:35:47 10° NNE
Aureole 3 4.2 20:27:48 10° SSE 20:31:42 43° E 20:36:31 10° NNE
Cosmos 1758 3.5 20:28:58 10° NNW 20:32:52 69° W 20:36:46 10° S
Cosmos 2322 Rocket 2.8 20:31:14 10° NW 20:36:44 53° WSW 20:42:15 10° S
ATLAS 2AS CENTAUR R/B 2.9 20:30:35 10° NW 20:37:23 64° SW 20:43:56 10° SSE
Cosmos 807 4.4 20:34:51 10° S 20:37:58 52° E 20:40:50 10° NNE
Cosmos 839 Rocket 4.2 20:31:09 10° NW 20:38:27 84° SW 20:44:40 10° SE
Meteor 2-10 Rocket 4.2 20:35:35 10° NNW 20:41:06 58° W 20:46:22 10° S
BREEZE-M DEB (TANK) 4.1 20:38:00 10° SW 20:42:17 54° SSE 20:58:33 10° E
Cosmos 1733 Rocket 3.4 20:43:36 10° NNW 20:47:59 66° W 20:52:22 10° S
ARIANE 5 R/B 3.5 20:46:00 10° SE 20:50:01 39° ENE 20:54:05 10° N
SL-4 R/B 1.9 20:46:57 10° W 20:50:48 66° S 20:54:54 10° ESE
Cosmos 1300 3.6 20:49:45 10° NNW 20:53:07 40° W 20:56:28 10° SSW
USA 281 3.5 20:47:53 10° SE 20:54:23 66° NE 21:00:55 10° NNW
Ariane Rocket 3.9 20:50:19 10° S 20:55:10 44° W 21:00:04 10° NNW
Okean 1-7 3.4 20:53:37 10° SSE 20:57:46 47° E 21:01:56 10° NNE
Timation 1 Rocket 4.4 20:52:30 10° SW 20:58:28 85° WNW 21:04:29 10° NNE
SL-27 R/B 1.8 20:55:46 10° SSW 20:58:32 88° ESE 21:01:21 10° NNE
Cosmos 2219 Rocket 2.3 20:55:49 10° NW 21:01:31 76° WSW 21:06:53 12° SSE
Cosmos 1400 Rocket 4.1 20:58:38 10° SW 21:02:17 39° WNW 21:05:55 10° N
Cosmos 1908 Rocket 3.7 20:58:11 10° N 21:02:32 65° ENE 21:06:27 12° SSE
GP-B 3.8 20:58:35 10° NNE 21:02:46 40° E 21:06:32 12° SSE
COSMOS 2428 3.0 20:57:37 10° NNW 21:03:17 64° NE 21:08:56 10° SE
Meteor 1-21 4.4 20:58:52 10° SSW 21:04:41 87° WNW 21:10:33 10° NNE
Cosmos 1782 Rocket 4.4 21:01:13 10° N 21:05:19 39° ENE 21:09:04 12° SE
BREEZE-M DEB (TANK) 3.9 21:03:56 10° WSW 21:05:30 16° SSW 21:06:54 13° SSE
Cosmos 1356 Rocket 3.8 21:01:27 10° SSW 21:05:38 65° WNW 21:09:49 10° N
ATLAS CENTAUR R/B 0.9 21:05:17 10° SW 21:08:47 79° SE 21:12:27 10° NE
Kosmos-1783 4.3 21:06:57 10° WNW 21:10:19 64° SW 21:16:48 11° SE
Cosmos 1850 Rocket 4.3 21:05:27 10° SSW 21:10:41 73° WNW 21:15:54 10° NNE
Okean 2 3.4 21:08:11 11° S 21:12:01 61° E 21:16:00 10° NNE
Meteor 1-4 Rocket 2.0 21:13:11 10° SSW 21:16:10 88° WNW 21:19:11 10° NNE
Cosmos 2228 Rocket 4.0 21:12:14 10° SSW 21:16:40 50° WNW 21:21:09 10° N
Cosmos 1953 2.2 21:13:40 10° NNW 21:17:32 81° W 21:20:51 13° S
Cosmos 1570 Rocket 4.1 21:14:38 10° NNW 21:20:02 86° ENE 21:24:46 14° SSE
Cosmos 1315 Rocket 2.8 21:17:29 10° S 21:21:25 75° ESE 21:25:26 10° NNE
Cosmos 1300 Rocket 4.1 21:18:28 10° N 21:22:39 47° ENE 21:26:10 14° SE
Cosmos 968 Rocket 3.6 21:18:57 10° SSW 21:24:07 79° WNW 21:29:22 10° NNE
Cosmos 158 Rocket 4.2 21:20:32 10° NNW 21:25:54 72° ENE 21:30:29 13° SE
Cosmos 2360 Rocket 3.5 21:21:18 10° NW 21:26:13 31° WSW 21:31:06 10° SSW
Cosmos 1242 Rocket 2.1 21:29:30 18° S 21:31:19 51° E 21:34:01 10° NNE
BlueWalker 3 3.1 21:31:50 13° S 21:34:01 21° SE 21:36:54 10° E
Cosmos 405 Rocket 4.5 21:31:40 10° N 21:34:41 22° ENE 21:37:43 10° ESE
SL-16 R/B 4.5 21:34:41 10° WNW 21:37:28 14° W 21:40:14 10° SW
USA 234 3.2 21:31:53 10° ENE 21:38:28 84° SSE 21:45:02 10° WSW
Landsat 5 4.3 21:34:57 10° N 21:38:48 47° WNW 21:42:44 10° SW
COSMOS 2455 3.8 21:35:30 14° SSE 21:39:41 30° ESE 21:44:51 10° NE
NOSS 0 Rocket 4.0 21:33:45 10° NNW 21:40:02 82° NE 21:45:42 13° SE
ALOS 2 3.4 21:37:03 13° SE 21:40:43 44° ENE 21:44:54 10° N
Cosmos 2333 Rocket 3.7 21:37:21 10° NW 21:42:03 27° WSW 21:46:45 10° SSW
Cosmos 773 Rocket 4.3 21:42:20 10° NNW 21:47:28 62° ENE 21:51:58 13° SE
Cosmos 1703 Rocket 3.6 21:43:33 12° S 21:47:38 88° WNW 21:52:08 10° N
Cosmos 836 Rocket 4.5 21:43:15 10° NNW 21:48:29 89° WSW 21:52:43 16° SSE
Cosmos 1455 3.2 21:49:02 10° NNW 21:52:16 35° W 21:55:03 13° SSW
Cosmos 2208 Rocket 4.1 21:49:27 10° NNW 21:54:39 69° WSW 21:58:40 17° SSE
SL-16 R/B 3.8 21:49:49 10° NNW 21:54:54 31° NE 21:59:56 10° ESE
Cosmos 1709 Rocket 4.3 21:49:59 15° SSE 21:55:11 56° E 22:01:22 10° NNE
MINOTAUR 4 R/B 3.4 21:52:45 10° NNE 21:55:40 72° ESE 21:57:30 20° S
Cosmos 1408 2.5 21:55:12 22° SSE 21:56:50 47° E 21:59:44 10° NNE
EXPRESS MD2 2.6 21:57:32 10° WSW 21:59:33 30° S 21:59:45 29° S
CZ-4C R/B 2.9 21:58:28 17° SSE 22:01:07 29° ESE 22:05:53 10° ENE
H-2A R/B 2.5 21:58:41 18° SSE 22:01:53 80° WSW 22:06:10 10° NNW
Cosmos 2237 Rocket 2.4 21:56:24 10° NNW 22:02:07 72° NE 22:07:12 13° SE
Cosmos 1703 4.0 22:00:20 19° SSE 22:02:32 36° E 22:05:57 10° NNE
Cosmos 2322 4.3 21:59:57 10° NW 22:05:21 46° WSW 22:09:35 16° S
CZ-2C R/B 3.8 22:00:56 10° NNE 22:05:21 72° WNW 22:09:29 12° SSW
Cosmos 2242 Rocket 3.9 22:02:21 18° S 22:05:40 59° E 22:10:11 10° NNE
Orbus 7S? 3.9 22:03:32 10° WNW 22:06:36 43° N 22:09:11 10° ENE
SJ 16-02 2.5 22:02:42 10° SW 22:06:48 41° WNW 22:10:56 10° NNE
GENESIS II 4.0 22:04:46 11° SSW 22:08:14 64° SE 22:11:51 10° NE
Cosmos 2227 Rocket 3.8 22:08:29 13° SE 22:11:41 20° E 22:15:42 10° NE
Meteor 1-24 Rocket 4.2 22:10:17 17° SSE 22:14:35 50° E 22:19:58 10° NNE
Cosmos 1980 3.7 22:09:39 10° NNW 22:15:22 89° ENE 22:20:05 15° SSE
Cosmos 371 Rocket 3.6 22:15:49 18° S 22:19:10 51° ESE 22:23:51 10° NE
ARIANE 5 R/B 3.9 22:23:17 13° SSW 22:26:31 30° W 22:30:22 10° NNW
ATLAS 2AS CENTAUR R/B 4.5 22:23:00 10° WNW 22:26:59 17° WSW 22:30:56 10° SW
SL-4 R/B 2.6 22:25:35 10° W 22:29:17 36° SSW 22:31:56 18° SSE
Cosmos 2297 Rocket 2.6 22:27:16 18° S 22:31:12 46° ESE 22:36:35 10° NE
Cosmos 1486 Rocket 4.0 22:28:53 16° SSW 22:33:06 76° ESE 22:38:20 10° NNE
Cosmos 1825 3.5 22:31:23 16° SE 22:33:11 24° E 22:36:02 10° NE
Okean 1 Rocket 3.9 22:31:24 10° N 22:35:33 42° ENE 22:38:57 15° SE
USA 281 4.2 22:34:22 14° SSW 22:39:18 35° WSW 22:45:15 10° NW
NOSS 8 (H) 4.4 22:37:58 18° SSW 22:40:18 54° SE 22:43:14 10° NE
Cosmos 1745 Rocket 4.5 22:34:59 11° SSW 22:41:00 59° WNW 22:47:20 10° N
PSLV R/B 3.9 22:36:58 10° NNE 22:41:08 51° E 22:43:45 21° S
Cosmos 2219 Rocket 4.2 22:41:15 10° WNW 22:44:32 16° W 22:47:50 10° SW
ATLAS CENTAUR R/B 3.5 22:43:51 10° W 22:46:51 24° NNW 22:49:57 10° NNE
COSMOS 2428 3.9 22:42:20 10° NW 22:47:11 29° WSW 22:50:54 15° SSW
Cosmos 1354 Rocket 4.4 22:44:53 19° S 22:48:33 53° ESE 22:53:42 10° NNE
Meteor 2-5 Rocket 3.8 22:46:15 17° S 22:50:55 88° ESE 22:56:47 10° NNE
NOSS 8 (F) 4.2 22:47:50 10° SW 22:51:28 88° NW 22:54:28 10° NE
BREEZE-M DEB (TANK) 1.1 22:50:31 10° W 22:53:24 59° SSW 22:54:55 15° ESE
Cosmos 2098 Rocket 4.2 22:47:18 10° NNW 22:53:53 69° W 22:58:50 18° S
Cosmos 2181 Rocket 4.0 22:48:33 10° NNW 22:54:47 80° W 22:59:29 18° S
H-2A R/B 2.5 22:52:20 10° NNE 22:56:30 48° E 22:59:07 20° SSE
Cosmos 2084 Rocket 4.1 22:55:25 21° S 22:57:35 35° SE 23:01:23 10° ENE
Cosmos 2263 Rocket 3.9 23:00:27 11° SE 23:03:58 20° E 23:07:54 10° NE
NOSS 8 (A) 4.2 23:01:15 10° NW 23:04:08 59° SW 23:06:11 21° SSE
Cosmos 304 Rocket 3.8 23:03:17 16° SSW 23:07:07 81° WNW 23:11:55 10° NNE
Cosmos 2151 Rocket 3.8 23:04:12 10° NNW 23:08:34 62° W 23:11:26 20° S
Cosmos 405 Rocket 3.4 23:06:26 10° NNW 23:09:58 40° W 23:12:07 20° SSW
Cosmos 2074 Rocket 4.1 23:05:16 18° S 23:10:00 69° E 23:16:11 10° NNE
BlueWalker 3 1.8 23:08:00 10° WSW 23:11:43 62° SSE 23:15:25 10° E
Cosmos 1455 Rocket 4.0 23:07:50 10° N 23:12:06 44° ENE 23:15:56 12° SE
Cosmos 332 Rocket 4.0 23:09:40 20° S 23:12:58 58° ESE 23:17:47 10° NNE
Okean 2 Rocket 3.3 23:10:42 10° NNW 23:15:07 59° W 23:18:04 20° S
ALOS 2 4.0 23:14:27 15° SW 23:17:13 27° W 23:21:00 10° NW
Cosmos 1818 4.0 23:14:14 10° NW 23:19:43 64° NE 23:25:09 10° ESE
USA 234 3.7 23:14:57 10° ENE 23:21:27 68° N 23:27:56 10° W
Cosmos 1674 Rocket 3.5 23:20:04 20° SSW 23:23:04 80° W 23:27:27 10° N
Cosmos 1378 Rocket 3.7 23:20:46 19° SSW 23:23:51 68° WNW 23:28:15 10° N
COSMOS 2455 3.1 23:19:10 10° SW 23:25:12 72° NW 23:31:16 10° NE
Cosmos 1025 Rocket 3.4 23:25:42 19° SSE 23:28:39 54° E 23:32:53 10° NNE
CENTAUR R/B 3.0 23:24:42 18° S 23:28:47 45° ESE 23:35:30 10° NE
Helios 1A Rocket 3.8 23:26:49 10° SE 23:30:21 41° ENE 23:33:57 10° N
Cosmos 990 Rocket 4.3 23:28:09 19° S 23:31:43 54° ESE 23:36:43 10° NNE
Cosmos 2221 Rocket 3.8 23:34:53 18° SSW 23:38:05 64° WNW 23:42:30 10° N
SL-16 R/B 2.2 23:33:50 10° NW 23:39:33 74° WSW 23:44:43 13° SSE
Cosmos 1892 3.0 23:37:30 20° SW 23:39:44 51° WNW 23:43:12 10° N
Nadezhda 3 Rocket 4.0 23:35:50 10° NNW 23:42:07 75° W 23:47:09 16° S
Cosmos 1295 Rocket 4.5 23:37:49 17° SSW 23:42:38 84° WNW 23:48:49 10° N
Cosmos 1328 3.7 23:42:44 21° SSW 23:45:17 83° WNW 23:49:13 10° N
Cosmos 2237 Rocket 3.5 23:41:07 10° NW 23:45:40 25° WSW 23:48:59 15° SSW
SJ 16-02 4.5 23:45:59 10° NW 23:46:23 10° NW 23:46:47 10° NNW
Cosmos 1538 Rocket 4.1 23:41:46 10° NNW 23:46:53 60° WSW 23:50:58 16° S
CZ-4C R/B 2.4 23:44:07 10° WSW 23:48:56 69° NW 23:55:09 10° NE
BREEZE-M DEB (TANK) 3.2 23:43:13 10° W 23:49:32 33° SW 23:51:39 15° SSE
Cosmos 1869 4.2 23:47:54 10° N 23:51:27 41° ENE 23:54:58 10° SE
Meteor 2-11 Rocket 4.4 23:47:46 17° S 23:52:37 90° W 23:58:45 10° NNE
GEOS 3 Rocket 3.7 23:47:36 10° NE 23:52:45 61° SE 23:56:49 16° SSW
Cosmos 1943 3.8 23:47:54 10° NNW 23:53:29 59° NE 23:59:02 10° SE
Cosmos 2082 4.4 23:49:30 16° S 23:53:39 41° ESE 23:58:53 10° NE
CZ-2D R/B 4.1 23:51:07 10° NE 23:54:55 19° E 23:58:40 10° SE
